User: anonymous   Login
Location: Unspecified
(0.0000°N, 0.0000°E)
Time: 23:19:24
(UTC+02:00)
Language:

Atlas Centaur 2 - Orbit

View from above orbital plane
View from above orbital plane
View from above satellite
View from above satellite

Ground track
Ground track

The orbit data is extracted from the following two-line orbital elements,

1 00694U 63047A   14297.44953597  .00001902  00000-0  23943-3 0  6261
2 00694 030.3603 077.7797 0596504 293.4464 099.5530 13.99993428547016
Epoch (UTC): 24 October 2014 10:47:19
Eccentricity: 0.0596504
inclination: 30.3603°
perigee height: 460 km
apogee height: 1327 km
right ascension of ascending node: 77.7797°
argument of perigee: 293.4464°
revolutions per day: 13.99993428
mean anomaly at epoch: 99.5530°
orbit number at epoch: 54701

The dashed part of the orbit path shows where the satellite is in the earth's shadow,  

DLR